Tracking 19562 objects as of 25-Mar-2019
HD Live streaming from Space Station
objects crossing your sky now

STTW-2

Track STTW-2 now!
STTW-2 is classified as:


NORAD ID: 18922
Int'l Code: 1988-014A
Perigee: 35,779.9 km
Apogee: 35,820.6 km
Inclination: 15.1 °
Period: 1,436.4 minutes
Semi major axis: 42171 km
RCS: 10.0237 m2 (large)
Launch date: March 7, 1988
Source: People's Republic of China (PRC)
Launch site: Xichang Space Center, China (XSC)
aabbcc
Your satellite tracking list
Your tracking list is empty




NASA's NSSDC Master Catalog

Two Line Element Set (TLE):
1 18922U 88014A   19084.12414365 -.00000036  00000-0  00000+0 0  9990
2 18922  15.0822   1.5431 0004820  43.1170 248.0186  1.00248667113622
Source of the keplerian elements: AFSPC